TimeMDT,TemperatureF,Dew PointF,Humidity,Sea Level PressureIn,VisibilityMPH,Wind Direction,Wind SpeedMPH,Gust SpeedMPH,PrecipitationIn,Events,Conditions,WindDirDegrees,DateUTC
12:16 AM,57.2,39.2,51,30.29,10.0,SE,5.8,-,N/A,,Clear,130,2012-09-08 06:16:00
12:35 AM,57.2,41.0,55,30.29,10.0,SE,8.1,-,N/A,,Clear,140,2012-09-08 06:35:00
12:55 AM,55.4,39.2,54,30.29,10.0,SE,3.5,-,N/A,,Clear,130,2012-09-08 06:55:00
1:15 AM,55.4,42.8,63,30.29,10.0,Calm,Calm,-,N/A,,Clear,0,2012-09-08 07:15:00
1:35 AM,55.4,39.2,54,30.29,10.0,Calm,Calm,-,N/A,,Clear,0,2012-09-08 07:35:00
2:15 AM,55.4,41.0,58,30.29,10.0,Calm,Calm,-,N/A,,Clear,0,2012-09-08 08:15:00
2:35 AM,53.6,44.6,72,30.29,10.0,Calm,Calm,-,N/A,,Clear,0,2012-09-08 08:35:00
2:55 AM,51.8,41.0,67,30.29,10.0,NE,3.5,-,N/A,,Clear,50,2012-09-08 08:55:00
3:15 AM,51.8,42.8,71,30.29,10.0,Calm,Calm,-,N/A,,Clear,0,2012-09-08 09:15:00
3:35 AM,51.8,39.2,62,30.29,10.0,Calm,Calm,-,N/A,,Clear,0,2012-09-08 09:35:00
3:55 AM,50.0,39.2,66,30.29,10.0,East,4.6,-,N/A,,Clear,80,2012-09-08 09:55:00
6:50 AM,51.8,37.4,58,30.32,15.0,Calm,Calm,-,N/A,,Clear,0,2012-09-08 12:50:00
7:56 AM,55.4,39.2,54,30.35,15.0,East,6.9,-,N/A,,Clear,90,2012-09-08 13:56:00
8:50 AM,60.8,37.4,42,30.35,15.0,SSE,4.6,-,N/A,,Clear,150,2012-09-08 14:50:00
9:47 AM,62.6,39.2,42,30.35,15.0,ENE,3.5,-,N/A,,Clear,60,2012-09-08 15:47:00
10:57 AM,69.8,41.0,35,30.34,15.0,SE,5.8,-,N/A,,Clear,130,2012-09-08 16:57:00
11:53 AM,71.6,44.6,38,30.33,15.0,South,3.5,-,N/A,,Clear,170,2012-09-08 17:53:00
12:53 PM,71.6,46.4,41,30.31,15.0,SSW,5.8,-,N/A,,Clear,210,2012-09-08 18:53:00
1:59 PM,75.2,44.6,34,30.28,15.0,NW,5.8,-,N/A,,Clear,310,2012-09-08 19:59:00
2:49 PM,77.0,44.6,32,30.26,15.0,SSW,5.8,-,N/A,,Clear,210,2012-09-08 20:49:00
3:57 PM,80.6,44.6,28,30.22,15.0,Variable,3.5,-,N/A,,Clear,0,2012-09-08 21:57:00
4:55 PM,82.4,35.6,19,30.19,15.0,Variable,3.5,-,N/A,,Clear,0,2012-09-08 22:55:00
5:57 PM,82.4,30.2,15,30.18,15.0,Calm,Calm,-,N/A,,Partly Cloudy,0,2012-09-08 23:57:00
6:55 PM,82.4,30.2,15,30.17,15.0,Calm,Calm,-,N/A,,Partly Cloudy,0,2012-09-09 00:55:00
7:50 PM,73.4,53.6,50,30.17,15.0,Calm,Calm,-,N/A,,Partly Cloudy,0,2012-09-09 01:50:00
8:52 PM,71.6,46.4,41,30.18,15.0,NW,8.1,-,N/A,,Partly Cloudy,310,2012-09-09 02:52:00
9:15 PM,69.8,46.4,43,30.19,10.0,North,5.8,-,N/A,,Clear,350,2012-09-09 03:15:00
9:35 PM,69.8,46.4,43,30.19,10.0,North,5.8,-,N/A,,Clear,350,2012-09-09 03:35:00
10:15 PM,64.4,46.4,52,30.20,10.0,ESE,3.5,-,N/A,,Clear,120,2012-09-09 04:15:00
10:55 PM,60.8,42.8,52,30.21,10.0,SSE,8.1,-,N/A,,Clear,160,2012-09-09 04:55:00
11:15 PM,62.6,42.8,48,30.21,10.0,SSE,5.8,-,N/A,,Clear,150,2012-09-09 05:15:00
11:35 PM,62.6,44.6,52,30.21,10.0,ESE,4.6,-,N/A,,Clear,110,2012-09-09 05:35:00
11:55 PM,59.0,42.8,55,30.21,10.0,ESE,4.6,-,N/A,,Clear,110,2012-09-09 05:55:00